Retour au catalogue

CZ-6A DEB

ActifPO
NORAD 60701·DEBRIS·🇨🇳 China

Lancé Aug 6, 2024 depuis Taiyuan Satellite Launch Center

Loading…

Prochains Passages (prochaines 24 heures)

TLE

FraisSource: Space-Track

Époque: Sep 14, 2026, 13:42 UTC

1 60701U 24140DE  26257.57107463  .00000781  00000-0  33881-3 0  9992
2 60701  89.3536 296.5678 0088310 311.3815  47.9806 14.21389282108389

Suivez CZ-6A DEB en temps réel avec AllMySat

Download on the App Store